This is the latest recevied weather packets stored in our database for station/object KD4EG. If no packets are shown the sender has not sent any weather packets the latest 10 day(s).
| Time | Temp. | Humidity | Pressure | Rain* | Wind** | Luminosity | Snow |
|---|---|---|---|---|---|---|---|
| 1778110947 | 22.78° C | 69% | 1011.7 hPa | 0 mm | - | 21 W/m² | - |
| 1778110645 | 22.78° C | 69% | 1011.8 hPa | 0 mm | - | 26 W/m² | - |
| 1778110341 | 22.78° C | 69% | 1012.1 hPa | 0 mm | - | 42 W/m² | - |
| 1778110038 | 22.78° C | 69% | 1012.1 hPa | 0 mm | - | 24 W/m² | - |
| 1778109733 | 22.78° C | 69% | 1012 hPa | 0 mm | - | 16 W/m² | - |
| 1778109430 | 22.78° C | 68% | 1012.1 hPa | 0 mm | - | 23 W/m² | - |
| 1778109129 | 22.78° C | 68% | 1011.9 hPa | 0 mm | - | 16 W/m² | - |
| 1778108825 | 23.33° C | 68% | 1011.8 hPa | 0 mm | - | 13 W/m² | - |
| 1778108522 | 23.33° C | 68% | 1011.8 hPa | 0 mm | - | 42 W/m² | - |
| 1778108218 | 23.33° C | 68% | 1011.9 hPa | 0 mm | - | 51 W/m² | - |
| 1778107915 | 23.33° C | 68% | 1012.1 hPa | 0 mm | - | 33 W/m² | - |
| 1778107612 | 23.33° C | 68% | 1012.2 hPa | 0 mm | - | 37 W/m² | - |
| 1778107309 | 23.33° C | 67% | 1012.3 hPa | 0 mm | - | 74 W/m² | - |
| 1778107005 | 23.33° C | 67% | 1012.3 hPa | 0 mm | - | 108 W/m² | - |
| 1778106701 | 23.33° C | 67% | 1012.4 hPa | 0 mm | - | 88 W/m² | - |
| 1778106398 | 23.33° C | 67% | 1012.3 hPa | 0 mm | - | 35 W/m² | - |
| 1778106094 | 23.33° C | 68% | 1012.3 hPa | 0 mm | - | 42 W/m² | - |
| 1778105792 | 23.33° C | 67% | 1012.2 hPa | 0 mm | - | 51 W/m² | - |
| 1778105490 | 23.33° C | 68% | 1012.2 hPa | 0 mm | - | 68 W/m² | - |
| 1778105186 | 23.33° C | 68% | 1012.1 hPa | 0 mm | - | 80 W/m² | - |
| 1778104881 | 22.78° C | 69% | 1012.2 hPa | 0 mm | - | 57 W/m² | - |
| 1778104578 | 23.33° C | 68% | 1012.4 hPa | 0 mm | - | 45 W/m² | - |
| 1778104274 | 23.33° C | 68% | 1011.9 hPa | 0 mm | - | 88 W/m² | - |
| 1778103971 | 23.33° C | 69% | 1012 hPa | 0 mm | - | 117 W/m² | - |
| 1778103668 | 22.78° C | 70% | 1011.8 hPa | 0 mm | - | 104 W/m² | - |
* Rain latest hour (hover to see other rain measurements)
** Current wind speed in m/s (hover to see current wind gust speed)